Location: Grantsboro
(35.1404°N, 76.8424°W)
Time: 17:56:16
(UTC+00:00)

SL-14 R/B - Pass Details

Date: 18 January 2020
Orbit: 517 x 555 km, 82.4° (Epoch: 18 February)

Event Time Altitude Azimuth Distance (km) Brightness Sun altitude
Exits shadow 11:07:16 22° 273° (W) 1,158 4.4 -13.7°
Maximum altitude 11:07:21 22° 270° (W) 1,157 4.4 -13.7°
Drops below altitude 10° 11:10:22 10° 218° (SW) 1,743 5.7 -13.1°
Sets 11:12:48 0° 203° (SSW) 2,623 6.7 -12.6°
